Regional Weather Roundup
Issued by NWS

Home | Current Version | Previous Version | Text Only | Print | Product List | Glossary On
Versions: 1 2 3 4 5 6 7 8 9 10 11 12 13 14 15 16 17 18 19 20 21 22 23 24 25 26 27 28 29 30 31 32 33 34 35 36 37 38 39 40 41 42 43 44 45 46 47 48 49 50
000
ASUS43 KBIS 230220
RWRND

NORTH DAKOTA REGIONAL WEATHER ROUNDUP
NATIONAL WEATHER SERVICE BISMARCK ND
900 PM CDT TUE JUL 22 2014

NOTE: "FAIR" INDICATES FEW OR NO CLOUDS BELOW 12,000 FEET WITH NO
SIGNIFICANT WEATHER AND/OR OBSTRUCTIONS TO VISIBILITY.


NDZ001>003-009>011-017-230300-
NORTHWEST NORTH DAKOTA

CITY           SKY/WX    TMP DP  RH WIND       PRES   REMARKS
WILLISTON      MOCLDY    79  62  56 E12       30.19R
MINOT          CLOUDY    72  64  76 E5        30.22R
MINOT AFB      FAIR      72  64  76 E6        30.22R
$$

NDZ018>021-031>035-040>046-230300-
SOUTHWEST NORTH DAKOTA

CITY           SKY/WX    TMP DP  RH WIND       PRES   REMARKS
BISMARCK       FAIR      73  65  75 E6        30.24R
DICKINSON      FAIR      69  59  70 SE5       30.18F
GARRISON         N/A     73  65  75 E6        30.22R
HETTINGER ARPT FAIR      68  60  75 E13       30.24S
$$

NDZ004>008-012>016-024-026-027-054-230300-
NORTHEAST NORTH DAKOTA

CITY           SKY/WX    TMP DP  RH WIND       PRES   REMARKS
GRAND FORKS    FAIR      68  61  78 N7        30.20R
GRND FRKS AFB  FAIR      68  61  78 N6        30.21S
DEVILS LAKE    FAIR      70  59  68 E7        30.21R
$$

NDZ022-023-025-028>030-036>039-047>053-230300-
SOUTHEAST NORTH DAKOTA

CITY           SKY/WX    TMP DP  RH WIND       PRES   REMARKS
FARGO          FAIR      71  58  63 N7        30.20R
JAMESTOWN      FAIR      70  62  76 E5        30.23R
$$




USA.gov is the U.S. government's official web portal to all federal, state and local government web resources and services.